CAPE
3140 3110 2930 2686 2567 2160 2388 2437 2295 2403 2481 2222 2108 2021 1814 1812 1659 1871 1784 1850 2164 2270 1951 1716 1439 1307 1198 1094 1078 965 778 774 595 452 373 449 545 524 585 676 686 635
3218 3313 3033 2969 2774 2355 2242 2570 2457 2183 2454 2375 2073 2004 1660 1649 1880 1853 1934 1914 2122 2121 1879 1582 1372 1244 1174 1024 964 800 650 425 353 280 315 180 206 270 416 482 556 462
3293 3263 3273 3134 2950 2696 2602 2588 2577 2353 2350 2233 1768 1652 1990 1869 1824 1962 1836 1976 2120 1857 1528 1560 1427 1198 1094 885 584 532 412 341 253 123 65 159 176 106 91 111 144 172
3318 3307 3209 3308 3182 2881 2637 2667 2458 2379 2288 2313 1966 2010 2108 2055 1770 1910 1834 1817 2000 1587 1616 1519 1266 1095 926 611 640 641 463 318 280 243 18 24 38 20 20 80 66 68
3112 3299 3244 3188 3223 2981 2693 2479 2458 2376 2347 2323 2114 2040 2122 2222 1920 1694 1838 1815 1713 1516 1519 1341 1143 992 660 693 649 583 494 321 301 272 100 1 0 0 0 0 0 0
3108 3144 2881 3102 2837 2849 2790 2545 2172 2366 2369 2366 2360 2164 2329 2231 1837 1451 1852 1560 1532 1428 1356 1209 833 692 750 731 616 540 478 331 313 279 0 0 0 0 0 0 0 0
3016 3092 3108 3023 2832 2851 2814 2462 2184 2092 2280 2348 2500 2311 2241 2118 1908 2009 1885 1782 1662 1365 1061 925 798 749 774 743 634 531 475 324 328 291 0 0 0 0 0 0 0 0
2952 2889 3211 2829 3117 3152 2702 2346 2328 2276 2294 2382 2517 2481 2241 2056 2032 1871 1783 1691 1551 1031 1134 982 846 794 805 747 662 538 432 333 313 26 0 0 0 0 0 0 0 0
3006 2968 3098 3059 3235 3233 2676 2561 2351 2352 2270 2422 2537 2533 2210 2202 2030 1756 1626 1573 1409 1039 1182 1037 898 852 793 754 639 477 350 319 201 0 0 0 0 0 0 0 0 0
2763 2896 3074 3086 3185 3106 2847 2642 2370 2281 2268 2328 2324 2299 2202 2121 1987 1667 1502 1450 1254 1099 1230 1104 974 881 806 751 570 407 322 312 0 0 0 0 0 0 0 0 0 0
2824 2913 3071 3148 3226 2963 2666 2374 2333 2311 2215 2202 2294 2200 2166 2035 1787 1461 1420 1306 1078 1185 1264 1164 1011 875 798 658 514 382 351 226 0 0 0 0 0 0 0 0 0 0
2883 2777 2912 3145 3139 2905 2520 2561 2413 2323 2232 2046 2015 2097 2060 1896 1529 1394 1179 1107 1102 1226 1285 1159 1005 844 776 677 524 431 433 259 0 0 0 0 0 0 0 0 0 0
2631 2771 2826 2892 2932 2842 2773 2571 2424 2318 2132 1801 1816 2055 1947 1687 1504 1396 1240 1144 1120 1251 1283 1150 1043 844 754 605 490 502 513 423 276 0 0 0 0 0 0 0 0 0
2596 2667 2631 2774 2933 2861 2649 2587 2418 2228 1916 1668 1925 1997 1849 1509 1489 1353 1302 1180 1125 1290 1324 1170 1084 920 775 590 460 479 540 519 445 75 0 0 0 0 0 0 0 0
2532 2563 2649 2624 2641 2672 2604 2416 2205 2143 1856 1640 1694 1920 1620 1468 1438 1429 1302 1206 1141 1304 1334 1243 1096 929 804 596 442 447 496 552 546 357 200 0 0 0 0 0 0 0
2326 2540 2580 2560 2478 2482 2489 2357 2040 2016 1656 1696 1694 1574 1590 1448 1502 1452 1301 1224 1102 1268 1324 1300 1173 982 828 719 485 441 516 555 510 348 246 68 0 0 0 0 0 0
2282 2442 2461 2467 2464 2407 2376 2249 2030 1798 1691 1632 1725 1624 1438 1502 1522 1447 1318 1185 1126 1294 1330 1313 1183 1018 743 684 529 502 527 487 424 322 234 126 0 0 0 0 0 0
2315 2477 2427 2295 2289 2376 2316 2070 1889 1677 1529 1566 1709 1700 1525 1502 1550 1481 1308 1193 1154 1272 1322 1315 1182 1057 712 570 507 563 538 413 316 307 229 64 0 0 0 0 0 0
2434 2389 2192 2096 2255 2240 2066 1975 1719 1486 1492 1602 1653 1684 1622 1535 1614 1464 1315 1218 1245 1311 1331 1319 1176 1051 750 539 480 542 498 362 314 316 223 20 0 0 0 0 0 0
2307 2347 2012 2097 2083 2051 1648 1548 1434 1480 1557 1534 1564 1690 1725 1618 1552 1391 1311 1233 1284 1418 1428 1391 1214 1008 723 547 459 497 408 326 325 360 279 200 0 0 0 90 0 0
2208 2144 1966 1982 1942 1828 1568 1477 1420 1476 1459 1496 1634 1708 1719 1664 1641 1550 1327 1264 1347 1454 1532 1448 1205 942 672 551 486 495 362 319 365 423 417 302 187 163 148 149 20 0
2071 1972 2112 1839 1778 1614 1482 1382 1371 1349 1433 1524 1614 1673 1754 1646 1635 1582 1276 1316 1403 1531 1564 1427 1179 934 703 595 499 476 371 340 357 424 462 384 260 183 163 148 98 0
1935 1889 2015 1972 1587 1451 1329 1250 1285 1393 1446 1455 1558 1675 1677 1678 1695 1617 1300 1135 1416 1468 1461 1326 1083 933 730 654 541 392 368 311 317 359 404 428 355 232 174 148 143 97
2028 1911 2037 1780 1637 1352 1252 1245 1326 1347 1432 1424 1491 1612 1633 1689 1693 1631 1320 1078 1205 1218 1125 1172 1093 962 774 669 574 473 409 351 318 284 390 443 420 294 205 168 149 125
1883 1956 1950 1620 1403 1321 1265 1303 1328 1406 1478 1390 1421 1503 1608 1687 1654 1618 1411 1152 1140 1091 1080 1055 1144 1024 818 691 643 583 480 393 346 386 412 452 446 357 260 218 199 159
2091 2025 1882 1465 1384 1343 1352 1340 1382 1464 1499 1440 1415 1452 1529 1564 1618 1622 1418 1096 1195 1048 1120 1142 1140 1032 862 728 717 651 557 457 426 435 438 430 406 353 297 276 233 206
Wind_Speed
25 27 28 27 25 26 30 33 34 36 38 36 33 31 29 29 28 27 26 25 24 24 25 24 22 21 21 21 20 17 17 18 18 19 20 20 21 21 21 22 22 22
24 27 31 29 27 27 29 33 35 35 39 37 33 29 27 28 28 27 27 26 26 25 25 24 22 22 22 21 21 18 17 18 19 20 20 21 20 22 22 22 22 22
26 26 28 29 28 29 30 33 35 35 37 37 33 29 29 28 28 27 27 27 27 26 25 24 23 22 22 21 22 19 18 20 20 22 nan 22 21 21 nan 22 22 22
27 26 25 28 30 30 32 34 35 35 37 37 34 31 29 28 28 28 27 29 28 26 25 24 23 22 22 22 23 20 19 20 21 22 nan nan nan nan nan nan nan nan
27 27 26 27 30 32 34 35 36 37 37 36 35 33 29 28 28 27 27 30 29 27 26 25 24 22 23 23 22 20 20 19 22 22 nan nan nan nan nan nan nan nan
31 29 26 27 29 32 35 35 36 38 38 36 37 34 30 29 28 28 28 32 31 28 27 26 25 23 24 24 22 21 21 19 21 22 nan nan nan nan nan nan nan nan
32 29 25 27 29 31 34 35 37 39 38 38 38 34 30 29 29 31 30 34 34 31 29 28 25 25 24 23 22 21 20 19 21 22 nan nan nan nan nan nan nan nan
30 28 28 30 32 32 32 36 40 40 39 40 38 35 31 30 32 32 31 33 34 33 29 28 26 25 25 23 22 21 21 19 21 nan nan nan nan nan nan nan nan nan
34 30 30 30 32 31 29 34 40 39 39 41 39 36 33 32 33 33 32 33 35 33 30 27 26 26 24 22 21 22 21 21 21 nan nan nan nan nan nan nan nan nan
33 32 31 32 31 29 29 32 38 39 40 41 39 36 36 34 34 35 32 33 36 34 31 28 26 26 24 22 21 21 21 22 nan nan nan nan nan nan nan nan nan nan
33 33 32 30 30 29 28 29 36 40 42 41 39 37 38 37 35 35 32 33 36 35 32 29 27 26 24 22 21 21 21 22 nan nan nan nan nan nan nan nan nan nan
35 34 31 29 30 29 27 30 36 41 43 41 39 38 39 38 37 35 32 32 36 36 32 29 26 26 24 23 23 22 21 22 nan nan nan nan nan nan nan nan nan nan
36 33 29 29 32 30 31 34 39 42 43 41 39 38 38 38 36 35 33 33 35 35 32 28 26 26 25 24 23 23 23 24 23 nan nan nan nan nan nan nan nan nan
34 28 26 30 35 32 33 37 41 44 42 40 38 35 34 36 36 35 35 34 36 36 32 28 26 26 25 25 24 24 24 24 24 nan nan nan nan nan nan nan nan nan
33 29 30 31 33 32 35 39 41 45 43 38 35 31 32 35 36 36 36 35 36 36 32 28 27 27 26 25 24 24 24 25 25 24 25 nan nan nan nan nan nan nan
32 32 30 30 32 34 36 40 42 43 39 33 31 30 32 36 37 37 37 36 36 36 33 30 27 26 28 29 26 24 25 25 25 25 26 nan nan nan nan nan nan nan
34 32 30 29 31 35 38 42 42 41 37 32 30 30 31 36 37 38 37 36 37 37 35 30 28 28 33 29 27 26 26 26 27 27 27 28 nan nan nan nan nan nan
36 33 30 32 34 36 38 40 44 43 38 32 31 32 31 34 38 38 38 38 37 36 35 31 27 32 34 31 28 28 27 28 28 28 28 nan nan nan nan nan nan nan
36 33 32 34 37 37 42 44 42 42 36 33 34 33 33 33 38 39 38 38 37 37 35 32 28 35 34 33 30 29 29 29 29 30 30 nan nan nan nan nan nan nan
35 35 35 40 40 43 47 44 42 39 36 34 36 36 33 33 38 40 39 38 37 37 35 33 30 36 35 34 31 29 30 29 30 32 31 31 nan nan nan nan nan nan
34 36 37 42 42 45 47 41 41 39 36 35 36 35 32 33 37 40 40 39 39 39 36 34 33 39 37 35 32 29 30 29 31 33 32 33 34 36 37 37 nan nan
35 38 40 41 42 46 47 42 42 38 34 34 36 36 34 34 35 40 41 40 39 40 37 34 36 40 37 36 33 29 31 29 32 34 34 35 36 38 39 38 nan nan
37 39 43 44 44 44 44 43 41 36 34 36 36 35 35 34 34 38 40 40 40 38 37 34 37 37 38 37 35 31 30 30 33 34 34 35 37 39 39 39 37 nan
37 41 46 45 42 40 42 42 38 34 36 42 39 36 36 33 36 38 40 40 39 36 36 36 36 38 40 38 36 34 31 32 34 35 36 36 37 39 38 38 37 37
38 40 43 41 42 42 44 39 33 33 41 43 42 38 35 35 37 36 37 39 38 36 39 35 37 41 41 39 38 36 32 34 36 36 37 38 39 39 38 36 37 36
43 42 43 42 41 44 43 36 35 39 41 43 40 39 36 36 37 36 37 38 39 38 38 34 38 40 39 41 39 36 32 33 35 36 38 40 40 41 40 36 35 34
Wind_Direction
264 260 262 270 279 285 290 293 296 299 299 305 310 309 306 305 312 313 311 308 310 313 312 310 306 304 303 306 307 309 309 311 313 314 317 316 317 317 313 313 309 304
267 263 261 267 274 282 288 291 295 298 298 303 309 307 303 304 310 310 306 308 310 314 313 311 307 304 303 303 305 310 309 309 312 307 312 319 319 318 317 315 310 306
264 265 266 271 275 284 287 290 293 295 296 302 309 307 298 301 308 307 307 306 307 312 313 309 304 302 302 303 302 305 309 308 310 308 nan 314 315 315 nan 315 311 311
263 265 267 270 272 278 281 287 292 292 294 298 306 303 297 299 306 307 306 306 304 310 310 307 304 301 303 301 302 306 308 308 307 306 nan nan nan nan nan nan nan nan
262 262 264 270 270 272 278 286 291 293 294 296 300 300 297 298 305 308 304 302 303 307 308 310 304 301 299 298 304 304 305 305 303 306 nan nan nan nan nan nan nan nan
256 258 264 270 273 273 277 284 288 291 293 295 297 297 296 298 306 307 304 298 300 306 311 307 303 300 296 298 303 303 304 304 304 308 nan nan nan nan nan nan nan nan
253 258 264 265 272 274 277 283 284 286 290 292 294 298 298 299 303 301 299 293 296 300 306 303 303 296 294 297 302 303 303 305 303 308 nan nan nan nan nan nan nan nan
251 255 253 259 266 272 279 280 280 285 288 289 294 296 298 298 298 295 293 293 294 299 304 304 299 295 295 297 302 302 303 299 301 nan nan nan nan nan nan nan nan nan
246 248 250 260 265 268 276 278 278 283 286 287 290 292 294 293 296 295 292 291 291 296 302 302 298 294 294 299 302 305 305 301 301 nan nan nan nan nan nan nan nan nan
245 247 250 256 260 265 274 275 276 279 281 285 289 290 290 292 296 294 290 289 289 294 298 298 297 292 295 300 304 305 304 304 nan nan nan nan nan nan nan nan nan nan
248 250 251 257 260 261 270 275 275 277 278 283 286 290 290 292 292 291 288 287 285 291 296 298 297 293 296 300 299 301 304 303 nan nan nan nan nan nan nan nan nan nan
247 251 255 257 258 257 266 270 271 274 276 280 287 291 290 291 291 287 284 284 284 289 295 297 296 292 295 299 300 301 303 303 nan nan nan nan nan nan nan nan nan nan
245 251 252 252 248 249 257 265 269 273 276 283 285 290 290 289 288 286 281 281 282 285 292 296 295 293 294 296 299 303 306 305 305 nan nan nan nan nan nan nan nan nan
242 245 246 245 243 247 256 262 266 270 276 281 284 289 290 289 286 285 279 278 279 283 289 293 291 288 290 292 296 303 305 306 304 nan nan nan nan nan nan nan nan nan
237 236 238 242 244 248 255 262 268 269 274 277 282 287 285 286 284 283 280 280 279 282 288 290 285 283 283 288 295 304 306 305 303 302 302 nan nan nan nan nan nan nan
232 231 234 242 245 248 256 262 267 272 277 280 286 288 286 283 283 282 281 281 281 282 286 284 279 275 280 294 297 301 304 300 299 299 300 nan nan nan nan nan nan nan
228 228 233 241 245 246 252 260 267 273 275 281 285 287 287 283 282 282 280 280 280 281 283 281 276 272 287 292 298 302 302 300 299 298 297 296 nan nan nan nan nan nan
226 227 234 239 242 246 252 259 261 266 273 282 287 287 286 282 282 282 279 277 274 278 279 280 278 275 288 291 293 297 299 298 298 296 295 nan nan nan nan nan nan nan
226 227 233 238 240 244 249 254 263 267 273 283 285 284 280 284 281 279 277 276 274 276 277 278 273 278 288 291 291 297 299 300 298 297 297 nan nan nan nan nan nan nan
227 229 234 236 240 243 249 253 261 271 277 276 277 277 280 281 278 278 275 275 274 275 276 278 275 278 286 289 291 297 299 300 298 300 299 300 nan nan nan nan nan nan
228 230 235 237 239 243 249 258 264 268 274 276 276 278 278 279 277 275 272 271 272 270 272 276 271 283 286 290 292 297 301 300 296 296 299 301 301 299 296 295 nan nan
229 232 237 239 241 244 250 259 265 272 279 275 272 272 270 272 272 271 273 273 272 270 270 275 272 288 287 291 293 296 300 293 293 296 299 301 301 300 296 293 nan nan
232 233 237 241 243 248 254 260 266 272 274 270 274 271 267 271 274 272 270 271 274 273 273 276 273 286 289 289 290 295 292 290 291 296 299 301 302 302 299 293 290 nan
237 239 240 244 248 255 258 260 266 270 267 258 265 270 267 271 271 269 268 271 275 277 278 278 275 282 288 289 292 295 295 291 291 296 299 301 303 305 301 292 288 293
239 242 246 247 246 251 254 261 267 266 257 257 257 263 266 268 269 272 273 272 275 277 278 283 276 283 293 294 293 297 295 288 292 295 299 301 303 306 305 293 285 285
237 243 248 247 248 250 254 260 261 257 259 258 262 263 266 269 272 276 279 274 274 278 278 283 277 280 291 295 295 298 302 290 292 295 298 301 302 304 306 298 285 284